Visibility
8.6 2.2 3.4 4.2 2.1 1.9 1.2 5.1 15.0 15.0 15.0 15.0 15.0 15.0 15.0 15.0 15.0 15.0 15.0 15.0 15.0 15.0 15.0 15.0 15.0 15.0 15.0 15.0 15.0 15.0 15.0 15.0 15.0 10.9 14.1 15.0 14.3 10.1 13.9 4.2 9.8 4.7 15.0 15.0
15.0 15.0 15.0 15.0 15.0 15.0 15.0 15.0 15.0 15.0 15.0 15.0 15.0 15.0 15.0 15.0 15.0 15.0 15.0 15.0 15.0 15.0 15.0 15.0 15.0 15.0 15.0 15.0 15.0 15.0 15.0 15.0 15.0 15.0 12.6 13.5 8.4 13.9 15.0 15.0 5.7 12.9 15.0 15.0
15.0 15.0 15.0 15.0 15.0 15.0 15.0 15.0 15.0 15.0 15.0 15.0 15.0 15.0 15.0 15.0 15.0 15.0 15.0 15.0 15.0 15.0 15.0 15.0 15.0 15.0 15.0 15.0 15.0 15.0 15.0 15.0 15.0 15.0 15.0 15.0 14.8 12.4 12.9 15.0 3.6 13.5 15.0 15.0
15.0 15.0 15.0 15.0 15.0 15.0 15.0 15.0 15.0 15.0 15.0 15.0 15.0 15.0 15.0 15.0 15.0 15.0 15.0 15.0 15.0 15.0 15.0 15.0 15.0 15.0 15.0 15.0 15.0 15.0 15.0 15.0 15.0 15.0 15.0 15.0 15.0 15.0 15.0 15.0 14.8 12.2 15.0 15.0
15.0 15.0 15.0 15.0 15.0 15.0 15.0 15.0 15.0 15.0 15.0 15.0 15.0 3.4 15.0 15.0 15.0 15.0 15.0 15.0 15.0 15.0 15.0 15.0 15.0 15.0 15.0 15.0 15.0 15.0 15.0 15.0 15.0 15.0 15.0 15.0 15.0 15.0 15.0 15.0 15.0 15.0 15.0 15.0
15.0 15.0 15.0 15.0 15.0 15.0 15.0 15.0 15.0 15.0 15.0 0.6 15.0 15.0 15.0 13.7 12.9 15.0 15.0 15.0 15.0 15.0 15.0 15.0 15.0 15.0 15.0 15.0 15.0 15.0 15.0 15.0 15.0 15.0 15.0 15.0 15.0 15.0 15.0 15.0 15.0 15.0 15.0 15.0
15.0 15.0 15.0 15.0 15.0 15.0 15.0 15.0 15.0 0.6 0.3 5.4 15.0 15.0 15.0 5.2 15.0 15.0 15.0 12.7 7.5 15.0 15.0 15.0 15.0 15.0 15.0 15.0 15.0 15.0 15.0 15.0 15.0 15.0 15.0 15.0 15.0 15.0 15.0 15.0 15.0 14.6 15.0 15.0
14.6 1.2 14.6 15.0 14.5 0.6 15.0 15.0 15.0 2.2 15.0 15.0 15.0 15.0 1.2 0.4 5.9 0.2 0.2 0.3 2.2 2.2 1.0 0.5 6.8 15.0 15.0 15.0 15.0 15.0 15.0 15.0 15.0 15.0 15.0 15.0 15.0 15.0 15.0 15.0 15.0 15.0 15.0 15.0
15.0 4.3 15.0 15.0 15.0 12.1 0.3 1.1 1.3 1.0 15.0 0.2 1.4 0.1 0.5 14.1 2.7 2.8 0.7 0.4 0.3 0.3 0.6 0.1 0.1 14.9 15.0 15.0 15.0 15.0 15.0 15.0 15.0 15.0 15.0 15.0 15.0 15.0 15.0 15.0 15.0 15.0 15.0 15.0
15.0 4.1 15.0 15.0 15.0 15.0 15.0 8.1 0.2 2.0 15.0 15.0 15.0 0.1 0.1 0.1 1.6 0.5 0.2 0.4 0.9 0.3 0.1 0.1 0.1 0.1 0.2 12.4 15.0 15.0 15.0 15.0 15.0 15.0 15.0 15.0 15.0 15.0 15.0 15.0 15.0 15.0 15.0 15.0
15.0 12.9 12.1 15.0 11.4 1.7 8.2 4.7 12.7 2.9 0.5 2.2 15.0 0.1 0.1 0.2 2.7 0.2 0.2 0.2 0.2 0.2 0.1 0.1 0.1 0.1 0.1 0.1 0.2 6.4 15.0 15.0 7.9 6.3 10.7 15.0 15.0 15.0 15.0 15.0 15.0 15.0 15.0 15.0
15.0 15.0 5.0 0.7 14.7 15.0 15.0 15.0 5.3 0.9 1.3 0.2 2.5 0.1 0.1 0.1 0.2 1.3 0.2 0.2 0.1 0.1 0.1 0.1 0.1 0.1 0.1 0.1 0.1 0.1 0.4 3.1 5.6 15.0 14.7 9.0 7.2 15.0 15.0 15.0 15.0 15.0 15.0 15.0
14.6 3.8 0.2 4.5 12.0 13.2 3.2 15.0 15.0 15.0 1.8 0.3 0.1 0.1 1.1 0.1 0.2 0.3 0.2 0.1 0.1 0.1 0.1 0.1 0.1 0.1 0.1 0.1 0.1 0.1 0.1 0.2 5.3 13.1 14.3 15.0 15.0 15.0 15.0 15.0 15.0 15.0 15.0 15.0
15.0 15.0 15.0 1.4 7.7 8.2 15.0 15.0 15.0 15.0 0.5 0.1 0.2 0.2 1.4 0.6 0.1 0.2 0.2 0.3 0.1 0.1 0.1 0.1 0.1 0.1 0.1 0.1 0.1 0.1 0.1 0.1 0.1 0.3 13.0 9.4 11.4 8.6 12.4 1.5 15.0 15.0 15.0 15.0
15.0 15.0 15.0 15.0 15.0 15.0 15.0 15.0 15.0 8.1 1.3 0.7 0.3 0.5 0.6 12.1 0.1 0.1 0.1 0.5 0.3 0.2 0.2 0.2 0.1 0.1 0.1 0.4 13.1 15.0 15.0 15.0 3.9 0.1 0.1 1.0 15.0 15.0 15.0 15.0 15.0 15.0 15.0 15.0
15.0 10.2 15.0 15.0 15.0 15.0 15.0 15.0 15.0 15.0 14.8 15.0 11.0 0.4 14.8 14.8 1.0 0.3 0.2 0.1 0.2 0.5 0.2 0.2 0.2 1.1 15.0 15.0 15.0 15.0 15.0 15.0 15.0 15.0 10.4 0.2 0.1 14.8 15.0 15.0 15.0 15.0 15.0 15.0
15.0 15.0 15.0 0.2 15.0 13.4 0.4 15.0 15.0 8.3 1.7 0.7 0.9 0.1 4.6 4.1 0.2 0.1 0.1 0.1 0.1 0.1 0.1 0.1 0.4 5.1 15.0 15.0 15.0 15.0 15.0 15.0 15.0 15.0 15.0 15.0 15.0 11.4 15.0 15.0 15.0 15.0 14.7 15.0
15.0 15.0 15.0 9.0 15.0 0.7 8.2 15.0 15.0 15.0 15.0 12.4 8.5 9.7 15.0 15.0 15.0 0.1 0.1 8.4 8.7 15.0 15.0 13.1 15.0 15.0 15.0 15.0 15.0 15.0 15.0 15.0 15.0 15.0 15.0 15.0 15.0 15.0 15.0 15.0 15.0 15.0 15.0 14.1
15.0 15.0 15.0 12.5 5.2 4.0 2.8 4.8 15.0 7.8 0.3 15.0 15.0 15.0 15.0 15.0 0.4 3.0 15.0 15.0 15.0 15.0 15.0 15.0 15.0 15.0 15.0 15.0 15.0 15.0 15.0 15.0 15.0 15.0 15.0 15.0 15.0 15.0 15.0 15.0 15.0 15.0 15.0 15.0
15.0 15.0 15.0 15.0 12.1 0.2 0.4 15.0 15.0 15.0 0.1 15.0 15.0 15.0 15.0 15.0 14.5 13.2 15.0 15.0 15.0 15.0 15.0 15.0 15.0 15.0 15.0 15.0 15.0 15.0 15.0 15.0 15.0 15.0 15.0 15.0 15.0 15.0 15.0 15.0 15.0 15.0 15.0 15.0
15.0 15.0 15.0 15.0 15.0 0.4 10.5 15.0 15.0 0.2 0.3 15.0 15.0 15.0 15.0 15.0 15.0 15.0 15.0 15.0 15.0 15.0 15.0 15.0 15.0 15.0 15.0 15.0 15.0 15.0 15.0 15.0 15.0 15.0 15.0 15.0 15.0 15.0 15.0 15.0 9.1 14.0 12.3 11.1
2.4 1.4 1.6 15.0 1.7 2.6 14.1 15.0 10.2 0.6 5.2 0.6 9.6 15.0 15.0 15.0 15.0 15.0 15.0 15.0 15.0 15.0 15.0 15.0 15.0 15.0 15.0 15.0 15.0 15.0 15.0 15.0 15.0 15.0 15.0 15.0 15.0 15.0 15.0 15.0 4.1 7.0 4.1 4.1
0.8 2.4 2.9 2.7 0.3 1.7 3.3 0.2 0.4 1.1 0.6 2.8 9.3 15.0 15.0 15.0 15.0 15.0 15.0 15.0 15.0 15.0 15.0 15.0 15.0 15.0 15.0 15.0 15.0 15.0 15.0 15.0 15.0 15.0 15.0 15.0 15.0 15.0 15.0 15.0 15.0 4.1 4.1 4.1
5.9 15.0 2.3 13.8 6.3 15.0 2.9 0.9 0.6 0.4 2.6 15.0 15.0 15.0 15.0 8.8 9.2 1.9 15.0 15.0 15.0 15.0 15.0 15.0 15.0 15.0 15.0 15.0 15.0 15.0 15.0 15.0 15.0 15.0 15.0 15.0 15.0 15.0 15.0 15.0 15.0 15.0 13.9 6.0
11.6 15.0 15.0 15.0 15.0 15.0 0.9 2.9 15.0 15.0 15.0 15.0 15.0 15.0 15.0 0.8 6.2 11.7 2.1 4.3 9.6 15.0 15.0 15.0 15.0 12.1 10.5 2.8 0.5 0.8 15.0 15.0 15.0 15.0 15.0 15.0 15.0 15.0 15.0 15.0 15.0 15.0 15.0 15.0
15.0 15.0 15.0 15.0 4.9 2.4 13.7 15.0 15.0 15.0 15.0 15.0 15.0 1.9 15.0 13.1 8.9 8.9 2.1 14.4 15.0 15.0 5.0 0.7 3.2 0.8 1.4 2.1 0.9 1.3 8.7 15.0 15.0 15.0 15.0 15.0 15.0 15.0 15.0 15.0 15.0 15.0 15.0 15.0